Location: Ipswich
(52.0579°N, 1.1528°E)
Time: 10:24:56
(UTC+01:00)

ISS - Pass Details

Date: 20 May 2026
Orbit: 414 x 424 km, 51.6° (Epoch: 8 May)

Event Time Altitude Azimuth Distance (km) Brightness Sun altitude
Rises 23:11:54 0° 280° (W) 2,355 0.5 -14.6°
Reaches altitude 10° 23:14:35 10° 257° (WSW) 1,489 -0.8 -14.7°
Maximum altitude 23:16:38 15° 218° (SW) 1,200 -1.7 -14.9°
Enters shadow 23:16:47 15° 215° (SW) 1,201 -1.7 -14.9°
